Regional Weather Roundup
Issued by NWS

Home | Current Version | Previous Version | Graphics & Text | Print | Product List | Glossary On
Versions: 1 2 3 4 5 6 7 8 9 10 11 12 13 14 15 16 17 18 19 20 21 22 23 24 25 26 27 28 29 30 31 32 33 34 35 36 37 38 39 40 41 42 43 44 45 46 47 48 49 50
000
ASUS43 KBIS 261710
RWRND

NORTH DAKOTA REGIONAL WEATHER ROUNDUP
NATIONAL WEATHER SERVICE BISMARCK ND
1100 AM CST SUN FEB 26 2017

NOTE: "FAIR" INDICATES FEW OR NO CLOUDS BELOW 12,000 FEET WITH NO
SIGNIFICANT WEATHER AND/OR OBSTRUCTIONS TO VISIBILITY.


NDZ001>003-009>011-017-261800-
NORTHWEST NORTH DAKOTA

CITY           SKY/WX    TMP DP  RH WIND       PRES   REMARKS
WILLISTON      CLOUDY    19  13  77 CALM      29.75R
MINOT          FAIR      15   8  73 SW7       29.77R WCI   5
MINOT AFB      SUNNY     14   8  76 W5        29.77R WCI   7
$$

NDZ018>021-031>035-040>046-261800-
SOUTHWEST NORTH DAKOTA

CITY           SKY/WX    TMP DP  RH WIND       PRES   REMARKS
BISMARCK       CLOUDY    18  11  74 SW5       29.80R WCI  11
DICKINSON      FAIR      26  19  74 W14       29.66S WCI  14
GARRISON         N/A     13  11  92 CALM      29.76S
HETTINGER ARPT SUNNY     30  20  66 W20       29.71S WCI  17
$$

NDZ004>008-012>016-024-026-027-054-261800-
NORTHEAST NORTH DAKOTA

CITY           SKY/WX    TMP DP  RH WIND       PRES   REMARKS
GRAND FORKS    SUNNY     13   1  59 W6        29.86R WCI   4
GRND FRKS AFB  SUNNY     14   3  59 W8        29.85R WCI   3
DEVILS LAKE    FAIR       5   2  87 W6        29.81R WCI  -6
$$

NDZ022-023-025-028>030-036>039-047>053-261800-
SOUTHEAST NORTH DAKOTA

CITY           SKY/WX    TMP DP  RH WIND       PRES   REMARKS
FARGO          SUNNY     16   9  74 NW7       29.86R WCI   6
JAMESTOWN      PTSUNNY   18   8  65 CALM      29.80R
$$





USA.gov is the U.S. government's official web portal to all federal, state and local government web resources and services.